Regional Weather Roundup
Issued by NWS Newport/Morehead, NC

Current Version | Previous Version | Graphics & Text | Print | Product List | Glossary On
Versions: 1 2 3 4 5 6 7 8 9 10 11 12 13 14 15 16 17 18 19 20 21 22 23 24 25 26 27 28 29 30 31 32 33 34 35 36 37 38 39 40 41 42 43 44 45 46 47 48 49 50
653 ASUS42 KMHX 120425 RWRMHX WEATHER ROUNDUP FOR EASTERN NORTH CAROLINA NATIONAL WEATHER SERVICE NEWPORT/MOREHEAD CITY NC 1100 PM EST THU FEB 11 2016 NOTE: "FAIR" INDICATES FEW OR NO CLOUDS BELOW 12,000 FEET WITH NO SIGNIFICANT WEATHER AND/OR OBSTRUCTIONS TO VISIBILITY NCZ015>017-031-032-045>047-102-103-120500- NORTH COAST CITY SKY/WX TMP DP RH WIND PRES REMARKS EDENTON CLEAR 27 18 67 CALM 30.32S ELIZABETH CITY CLEAR 26 11 52 NW8 30.31S KITTY HAWK CLEAR 31 7 36 CALM 30.30R MANTEO CLEAR 33 6 32 N9 30.31S $$ NCZ045>047-081-094-103-104-120500- CENTRAL COAST CITY SKY/WX TMP DP RH WIND PRES REMARKS FRISCO CLEAR 35 13 40 VRB3 30.31R SWANQUARTER N/A 27 N/A N/A N1 30.30S $$ NCZ095-097-098-100-101-120500- SOUTHERN COAST CITY SKY/WX TMP DP RH WIND PRES REMARKS BEAUFORT CLEAR 28 19 69 CALM 30.32R CEDAR ISLAND N/A 37 N/A N/A NW5 30.36S JACKSONVILLE CLEAR 29 22 75 CALM 30.30S PINEY ISLAND CLEAR N/A N/A N/A CALM 30.31S WILMINGTON CLEAR 29 24 82 NE3 30.29F $$ NCZ011>013-027>030-043-044-078>080-089-090>093-098-120500- COASTAL PLAIN CITY SKY/WX TMP DP RH WIND PRES REMARKS AHOSKIE CLEAR 24 11 59 CALM 30.32S CLINTON CLEAR 30 24 78 CALM 30.29F ELIZABETHTOWN CLEAR 30 24 78 CALM 30.27F GOLDSBORO CLEAR 28 18 64 CALM 30.29R GREENVILLE CLEAR 25 21 86 N5 30.32S HAVELOCK CLEAR 28 22 78 CALM 30.32S KENANSVILLE CLEAR 25 22 87 CALM 30.31S KINSTON CLEAR 26 20 79 CALM 30.32R NEW BERN CLEAR 27 19 72 CALM 30.33R RICHLANDS CLEAR 27 18 69 CALM 30.30S ROCKY MOUNT CLEAR 25 18 74 CALM 30.32R WASHINGTON CLEAR 25 17 70 N6 30.31F WHITEVILLE CLEAR 31 25 77 CALM 30.27S $$ AMZ130-135-150-152-154-156-158-170-250-252-270-ANZ085-086-088-633-658-670-120500- MARINE OBSERVATIONS STATION/POSITION TIME TEMP WIND PRES WAVE SWELL AIR SEA DIR/SP/G HT/PER HT/PER (UTC) (F) (DEG/KT/KT) (MB) (FT/S) (FT/S) CHESAPEAKE LIGHT 0400 31 10/ 16/ 18 1026.8 64 E VA BEACH 0350 36 49 310/ 16/ 21 1025.2 5/ 6 2/10 DUCK 0400 34 330/ 10/ 12 1025.5 2 E DUCK 0311 43 N/A 2/12 OREGON INLET 0400 31 41 340/ 5/ 7 1026.3 13E OREGON INLT 0400 46 N/A 4/ 6 2/13 HATTERAS CG 0400 38 45 340/ 8/ 10 1026.1 DIAMOND BUOY 0350 41 68 320/ 12/ 17 1026.4 3/ 4 2/ 7 CAPE LOOKOUT NOT AVBL BEAUFORT LAB 0400 35 45 50/ 3/ 4 1025.4 30 SE NEW RVR IN 0308 45 59 1025.7 30 SE NEW RVR IN 0355 58 N/A 3/ 8 27 SE WRIGHTSVLE NOT AVBL 5 SE WRIGHTSVLE 0308 45 50 20/ 2/ 4 1025.8 225 S CAPE HAT 0350 56 68 300/ 12/ 16 N/A 7/ 8 5/ 8 41 SE CHARLESTON 0350 55 68 40/ 4/ 6 1023.7 1/ 5 2/ 5 $$

USA.gov is the U.S. government's official web portal to all federal, state and local government web resources and services.